Weather History for Valparaiso, FL

Change the Weather History Date:

Sunday, September 8, 2013

  Actual Average Record
Temperature  
Mean Temperature 80 °F -  
Max Temperature 91 °F 88 °F 96 °F (1980)
Min Temperature 70 °F 68 °F 56 °F (1953)
Cooling Degree Days 16    
Growing Degree Days 30 (Base 50)    
Moisture  
Dew Point 69 °F    
Average Humidity 70    
Maximum Humidity 96    
Minimum Humidity 45    
Precipitation  
Precipitation 0.00 in - - ()
Sea Level Pressure  
Sea Level Pressure 29.99 in    
Wind  
Wind Speed 2 mph (WNW)    
Max Wind Speed 9 mph    
Max Gust Speed -    
Visibility 10 miles    
Events      
Averages and records for this station are not official NWS values.
T = Trace of Precipitation, MM = Missing Value Source: NWS Daily Summary

Daily Weather History Graph

Daily Weather History Graph

Search for Another Location

Airport:

Trip Planner

Search our weather history database for the weather conditions in past years. The results will help you decide how hot, cold, wet, or windy it might be!

Date:

Astronomy

Sep. 08, 2013 Rise Set
Actual Time 6:26 AM CDT 7:00 PM CDT
Civil Twilight 6:02 AM CDT 7:24 PM CDT
Nautical Twilight 5:34 AM CDT 7:52 PM CDT
Astronomical Twilight 5:05 AM CDT 8:21 PM CDT
Moon 9:26 AM CDT (9/8) 8:54 PM CDT (9/8)
Length of Visible Light 13h 21m
Length of Day
12h 33m
Waxing Crescent, 11% of the Moon is Illuminated
Sep 8
Waxing Crescent
Sep 12
First Quarter
Sep 19
Full
Sep 26
Last Quarter
Oct 4
New

Hourly Weather History & Observations

Time (CDT) Temp. Heat Index Dew Point Humidity Pressure Visibility Wind Dir Wind Speed Gust Speed Precip Events Conditions
12:55 AM 74.3 °F - 72.0 °F 92% 30.01 in 10.0 mi Calm Calm - N/A   Clear
1:55 AM 73.4 °F - 70.9 °F 92% 30.00 in 10.0 mi Calm Calm - N/A   Clear
1:56 AM 73.4 °F - 71.6 °F 94% 30.00 in 10.0 mi North 3.5 mph - N/A   Clear
2:58 AM 72.1 °F - 70.0 °F 93% 29.99 in 10.0 mi Calm Calm - N/A   Clear
3:55 AM 72.1 °F - 70.0 °F 93% 29.99 in 10.0 mi Calm Calm - N/A   Clear
4:55 AM 70.9 °F - 69.3 °F 95% 29.99 in 10.0 mi Calm Calm - N/A   Clear
5:57 AM 70.9 °F - 69.4 °F 95% 30.00 in 10.0 mi Calm Calm - N/A   Clear
6:57 AM 70.5 °F - 69.4 °F 96% 30.02 in 10.0 mi Calm Calm - N/A   Partly Cloudy
7:55 AM 74.8 °F - 70.9 °F 87% 30.02 in 10.0 mi North 3.5 mph - N/A   Clear
8:55 AM 81.7 °F 86.5 °F 72.3 °F 73% 30.01 in 10.0 mi North 4.6 mph - N/A   Clear
9:55 AM 85.5 °F 90.4 °F 70.7 °F 61% 30.02 in 10.0 mi ENE 4.6 mph - N/A   Clear
10:55 AM 87.1 °F 92.0 °F 70.2 °F 57% 30.01 in 10.0 mi ENE 2.3 mph - N/A   Partly Cloudy
11:55 AM 90.1 °F 93.5 °F 67.6 °F 47% 30.01 in 10.0 mi SE 5.8 mph - N/A   Scattered Clouds
12:55 PM 91.2 °F 94.6 °F 66.9 °F 45% 30.00 in 10.0 mi Variable 5.8 mph - N/A   Scattered Clouds
1:55 PM 89.8 °F 93.8 °F 68.0 °F 49% 29.98 in 10.0 mi South 8.1 mph - N/A   Scattered Clouds
2:55 PM 90.1 °F 94.0 °F 68.0 °F 48% 29.96 in 10.0 mi SSW 8.1 mph - N/A   Partly Cloudy
3:55 PM 90.0 °F 94.1 °F 68.2 °F 49% 29.96 in 10.0 mi South 9.2 mph - N/A   Partly Cloudy
4:41 PM 89.6 °F 93.4 °F 68.0 °F 49% 29.94 in 10.0 mi SW 6.9 mph - N/A   Scattered Clouds
4:55 PM 89.1 °F 93.3 °F 68.7 °F 51% 29.96 in 10.0 mi WSW 5.8 mph - N/A   Scattered Clouds
5:55 PM 88.2 °F 91.7 °F 68.2 °F 51% 29.96 in 10.0 mi WSW 6.9 mph - N/A   Partly Cloudy
6:55 PM 85.1 °F 88.8 °F 68.7 °F 58% 29.95 in 10.0 mi WSW 2.3 mph - N/A   Partly Cloudy
7:55 PM 82.6 °F 85.9 °F 68.7 °F 63% 29.99 in 10.0 mi Calm Calm - N/A   Clear
8:55 PM 81.3 °F 84.5 °F 68.9 °F 66% 30.00 in 10.0 mi WNW 1.2 mph - N/A   Clear
9:55 PM 78.8 °F - 69.8 °F 74% 30.01 in 10.0 mi NW 2.3 mph - N/A   Clear
10:55 PM 78.4 °F - 68.7 °F 72% 30.01 in 10.0 mi NNW 2.3 mph - N/A   Clear
11:55 PM 75.4 °F - 69.6 °F 82% 30.00 in 10.0 mi NNW 1.2 mph - N/A   Clear